Location: Peebles
(55.6412°N, 3.1714°W)
Time: 16:24:24
(UTC+01:00)

USA 238 DEB - Pass Details

Date: 28 January 2022
Orbit: 969 x 1243 km, 63.4° (Epoch: 04 May)

Event Time Altitude Azimuth Distance (km) Brightness Sun altitude
Rises 17:46:47 0° 254° (WSW) 3,738 9.0 -9.5°
Reaches altitude 10° 17:49:22 10° 259° (W) 2,819 7.5 -9.9°
Maximum altitude 17:55:56 57° 338° (NNW) 1,256 4.1 -10.7°
Enters shadow 18:02:23 13° 55° (NE) 2,818 5.3 -11.6°
